• In Netherlands
  • List of Countries
  • For 7 days
  • Water Temperature
  • Satellite Maps
  • Weather Map
  • Weather Widgets
  • user-avatar
    Login

    Hourly Weather Yerevan

    Today, 18 October, Thursday

    Time Temperature Precipitation Wind Pressure Humidity
    00:00 +14°C° 0 mm 1 mps 693 mmHg 69%
    01:00 +14°C° 0 mm 1 mps 693 mmHg 70%
    02:00 +13°C° 0 mm 0 mps 693 mmHg 72%
    03:00 +12°C° 0 mm 0 mps 692 mmHg 73%
    04:00 +12°C° 0 mm 0 mps 692 mmHg 73%
    05:00 +12°C° 0 mm 0 mps 692 mmHg 74%
    06:00 +11°C° 0 mm 0 mps 692 mmHg 74%
    07:00 +14°C° 0 mm 0 mps 692 mmHg 65%
    08:00 +18°C° 0 mm 1 mps 693 mmHg 55%
    09:00 +20°C° 0 mm 1 mps 693 mmHg 46%
    10:00 +21°C° 0 mm 1 mps 693 mmHg 41%
    11:00 +23°C° 0 mm 1 mps 693 mmHg 36%
    12:00 +24°C° 0 mm 2 mps 693 mmHg 32%
    13:00 +24°C° 0 mm 2 mps 692 mmHg 30%
    14:00 +24°C° 0 mm 2 mps 692 mmHg 29%
    15:00 +25°C° 0 mm 2 mps 692 mmHg 27%
    16:00 +23°C° 0 mm 1 mps 691 mmHg 32%
    17:00 +20°C° 0 mm 1 mps 691 mmHg 37%
    18:00 +16°C° 0 mm 0 mps 691 mmHg 42%
    19:00 +18°C° 0 mm 1 mps 691 mmHg 44%
    20:00 +16°C° 0 mm 1 mps 692 mmHg 47%
    21:00 +16°C° 0 mm 1 mps 692 mmHg 49%
    22:00 +15°C° 0 mm 1 mps 692 mmHg 52%
    23:00 +15°C° 0 mm 1 mps 692 mmHg 55%

    Tomorrow, 19 October, Friday

    Time Temperature Precipitation Wind Pressure Humidity
    00:00 +14°C° 0 mm 1 mps 692 mmHg 58%
    01:00 +14°C° 0 mm 1 mps 692 mmHg 60%
    02:00 +14°C° 0 mm 1 mps 692 mmHg 63%
    03:00 +13°C° 0 mm 1 mps 692 mmHg 65%
    04:00 +13°C° 0 mm 1 mps 692 mmHg 66%
    05:00 +13°C° 0 mm 1 mps 692 mmHg 67%
    06:00 +11°C° 0 mm 0 mps 692 mmHg 67%
    07:00 +15°C° 0 mm 1 mps 692 mmHg 57%
    08:00 +18°C° 0 mm 1 mps 693 mmHg 47%
    09:00 +20°C° 0 mm 1 mps 693 mmHg 37%
    10:00 +21°C° 0 mm 1 mps 693 mmHg 34%
    11:00 +23°C° 0 mm 2 mps 693 mmHg 31%
    12:00 +24°C° 0 mm 2 mps 693 mmHg 28%
    13:00 +24°C° 0 mm 2 mps 692 mmHg 28%
    14:00 +24°C° 0 mm 2 mps 692 mmHg 28%
    15:00 +24°C° 0 mm 2 mps 691 mmHg 28%
    16:00 +23°C° 0 mm 2 mps 691 mmHg 33%
    17:00 +21°C° 0 mm 1 mps 691 mmHg 38%
    18:00 +19°C° 0 mm 1 mps 691 mmHg 42%
    19:00 +18°C° 0 mm 1 mps 691 mmHg 44%
    20:00 +18°C° 0 mm 1 mps 691 mmHg 46%
    21:00 +16°C° 0 mm 1 mps 692 mmHg 48%
    22:00 +16°C° 0 mm 1 mps 691 mmHg 49%
    23:00 +16°C° 0 mm 1 mps 691 mmHg 50%

    Day after tomorrow, 20 October, Saturday

    Time Temperature Precipitation Wind Pressure Humidity
    00:00 +15°C° 0 mm 1 mps 691 mmHg 50%
    01:00 +15°C° 0 mm 1 mps 691 mmHg 51%
    02:00 +15°C° 0 mm 1 mps 691 mmHg 51%
    03:00 +14°C° 0 mm 1 mps 691 mmHg 52%
    04:00 +14°C° 0.1 mm 1 mps 691 mmHg 53%
    05:00 +14°C° 0.1 mm 1 mps 691 mmHg 54%
    06:00 +14°C° 0.1 mm 1 mps 691 mmHg 55%
    07:00 +16°C° 0.1 mm 1 mps 691 mmHg 50%
    08:00 +19°C° 0.1 mm 1 mps 692 mmHg 46%
    09:00 +21°C° 0.1 mm 1 mps 692 mmHg 42%
    10:00 +21°C° 0 mm 2 mps 692 mmHg 39%
    11:00 +23°C° 0 mm 2 mps 691 mmHg 37%
    12:00 +24°C° 0 mm 2 mps 691 mmHg 34%
    13:00 +24°C° 0 mm 2 mps 691 mmHg 34%
    14:00 +25°C° 0 mm 2 mps 690 mmHg 33%
    15:00 +25°C° 0 mm 2 mps 690 mmHg 33%
    16:00 +23°C° 0.1 mm 2 mps 690 mmHg 37%
    17:00 +20°C° 0.1 mm 2 mps 690 mmHg 41%
    18:00 +20°C° 0.1 mm 1 mps 689 mmHg 45%
    19:00 +19°C° 0.2 mm 1 mps 690 mmHg 46%
    20:00 +19°C° 0.2 mm 1 mps 690 mmHg 47%
    21:00 +18°C° 0.2 mm 1 mps 690 mmHg 48%
    22:00 +18°C° 0.1 mm 1 mps 690 mmHg 49%
    23:00 +18°C° 0.1 mm 1 mps 689 mmHg 50%

    21 October, Sunday

    Time Temperature Precipitation Wind Pressure Humidity
    00:00 +16°C° 0.1 mm 1 mps 689 mmHg 51%
    01:00 +16°C° 0 mm 1 mps 689 mmHg 52%
    02:00 +16°C° 0 mm 1 mps 689 mmHg 53%
    03:00 +16°C° 0 mm 1 mps 689 mmHg 54%
    04:00 +16°C° 0.1 mm 1 mps 689 mmHg 54%
    05:00 +16°C° 0.1 mm 1 mps 689 mmHg 55%
    06:00 +16°C° 0.1 mm 1 mps 689 mmHg 55%
    07:00 +18°C° 0.2 mm 1 mps 689 mmHg 52%
    08:00 +19°C° 0.2 mm 1 mps 689 mmHg 49%
    09:00 +19°C° 0.2 mm 2 mps 690 mmHg 45%
    10:00 +20°C° 0.2 mm 2 mps 689 mmHg 44%
    11:00 +21°C° 0.2 mm 2 mps 689 mmHg 42%
    12:00 +21°C° 0.2 mm 3 mps 689 mmHg 41%
    13:00 +21°C° 0.1 mm 3 mps 688 mmHg 41%
    14:00 +21°C° 0.1 mm 3 mps 688 mmHg 42%
    15:00 +21°C° 0.1 mm 4 mps 688 mmHg 42%
    16:00 +20°C° 0 mm 3 mps 687 mmHg 47%
    17:00 +19°C° 0 mm 3 mps 687 mmHg 52%
    18:00 +17°C° 0 mm 2 mps 687 mmHg 57%
    19:00 +17°C° 0 mm 2 mps 687 mmHg 61%
    20:00 +16°C° 0 mm 2 mps 687 mmHg 64%
    21:00 +16°C° 0 mm 2 mps 687 mmHg 67%
    22:00 +16°C° 0 mm 2 mps 687 mmHg 70%
    23:00 +15°C° 0 mm 1 mps 687 mmHg 72%

    22 October, Monday

    Time Temperature Precipitation Wind Pressure Humidity
    00:00 +15°C° 0 mm 1 mps 687 mmHg 74%
    01:00 +15°C° 0.1 mm 1 mps 687 mmHg 75%
    02:00 +14°C° 0.1 mm 1 mps 687 mmHg 76%
    03:00 +14°C° 0.1 mm 1 mps 687 mmHg 76%
    04:00 +14°C° 0.1 mm 1 mps 687 mmHg 76%
    05:00 +14°C° 0.1 mm 1 mps 687 mmHg 76%
    06:00 +14°C° 0.1 mm 1 mps 688 mmHg 76%
    07:00 +16°C° 0.1 mm 2 mps 688 mmHg 70%
    08:00 +17°C° 0.1 mm 2 mps 688 mmHg 63%
    09:00 +19°C° 0.1 mm 3 mps 689 mmHg 57%
    10:00 +20°C° 0 mm 3 mps 689 mmHg 52%
    11:00 +21°C° 0 mm 3 mps 689 mmHg 48%
    12:00 +22°C° 0 mm 3 mps 689 mmHg 43%
    13:00 +22°C° 0.1 mm 3 mps 689 mmHg 42%
    14:00 +22°C° 0.1 mm 3 mps 689 mmHg 41%
    15:00 +22°C° 0.1 mm 3 mps 688 mmHg 41%
    16:00 +21°C° 0.1 mm 3 mps 689 mmHg 46%
    17:00 +19°C° 0.1 mm 3 mps 689 mmHg 50%
    18:00 +18°C° 0.1 mm 2 mps 689 mmHg 55%
    19:00 +17°C° 0 mm 2 mps 689 mmHg 56%
    20:00 +17°C° 0 mm 2 mps 690 mmHg 57%
    21:00 +16°C° 0 mm 2 mps 690 mmHg 58%
    22:00 +16°C° 0 mm 2 mps 690 mmHg 59%
    23:00 +16°C° 0 mm 2 mps 690 mmHg 60%

    23 October, Tuesday

    Time Temperature Precipitation Wind Pressure Humidity
    00:00 +15°C° 0 mm 2 mps 690 mmHg 61%
    01:00 +15°C° 0 mm 2 mps 690 mmHg 61%
    02:00 +15°C° 0 mm 2 mps 690 mmHg 61%
    03:00 +15°C° 0 mm 2 mps 690 mmHg 61%
    04:00 +15°C° 0.1 mm 2 mps 690 mmHg 61%
    05:00 +15°C° 0.1 mm 2 mps 691 mmHg 62%
    06:00 +15°C° 0.1 mm 2 mps 691 mmHg 62%
    07:00 +16°C° 0 mm 2 mps 691 mmHg 58%
    08:00 +18°C° 0 mm 2 mps 691 mmHg 54%
    09:00 +19°C° 0 mm 3 mps 692 mmHg 50%
    10:00 +19°C° 0.5 mm 3 mps 691 mmHg 52%
    11:00 +19°C° 0.5 mm 3 mps 691 mmHg 55%
    12:00 +19°C° 0.5 mm 3 mps 691 mmHg 58%
    13:00 +19°C° 0.2 mm 3 mps 691 mmHg 56%
    14:00 +20°C° 0.2 mm 3 mps 691 mmHg 55%
    15:00 +20°C° 0.2 mm 3 mps 690 mmHg 53%
    16:00 +19°C° 0.1 mm 3 mps 690 mmHg 57%
    17:00 +18°C° 0.1 mm 2 mps 690 mmHg 61%
    18:00 +17°C° 0.1 mm 2 mps 690 mmHg 64%
    19:00 +17°C° 0.1 mm 2 mps 690 mmHg 65%
    20:00 +17°C° 0.1 mm 2 mps 690 mmHg 66%
    21:00 +16°C° 0.1 mm 2 mps 690 mmHg 66%
    22:00 +16°C° 0 mm 2 mps 690 mmHg 65%
    23:00 +16°C° 0 mm 2 mps 690 mmHg 65%
    Show more